Other Public Products
Issued by NWS Charleston, SC

Home | Current Version | Previous Version | Text Only | Print | Product List | Glossary On
Versions: 1 2 3 4 5 6 7 8 9 10 11 12 13 14 15 16 17 18 19 20 21 22 23 24 25 26 27 28 29 30 31 32 33 34 35 36 37 38 39 40 41 42 43 44 45 46 47 48 49 50
959
FPUS82 KCHS 261127
OPUCHS

TEST...KCHS/KSAV Gateway Observations...TEST
National Weather Service Charleston SC
700 AM EDT FRI MAY 26 2017

NOTE: "fair" indicates few or no clouds below 12,000 feet with no
significant weather and/or obstructions to visibility.

SCZ050-WAZ558-NCZ071-TXZ119-213-PAZ071-DCZ001-FLZ074-172-MI076-
NYZ176-178-MAZ016-IL014-TNZ027-NJZ106-GAZ044-MD014-261200-

...Gateway Observations for Charleston International...

CITY           SKY/WX    TMP DP  RH WIND       PRES   REMARKS
Chas Airport   CLEAR     61  53  75 W6        29.99R
Seattle        CLEAR     55  48  77 CALM      29.93R
Charlotte      CLEAR     58  51  78 SW3       29.95R
Dallas DFW     MOCLDY    76  71  85 S18G24    29.70R
Dallas Love    CLOUDY    77  70  79 S13       29.72R
Philladelphia  MOSUNNY   61  57  87 W12       29.60R
Wash National  PTSUNNY   61  56  83 SW9       29.69R
Baltimore      CLOUDY    61  57  87 W8        29.66R
Miami          MOCLDY    81  74  79 CALM      30.01R
Detroit        CLOUDY    57  51  80 NW7       29.78R
Newark         LGT RAIN  55  55 100 NW5       29.56R
Laguardia      CLOUDY    58  54  86 NW9       29.55R
J F K          LGT RAIN  57  57 100 N8        29.56R
Boston Logan   LGT RAIN  49  48  97 N12       29.49F
Ft. Lauderdale MOCLDY    77  75  93 NW6       30.01R
Chicago O`Hare MOCLDY    53  50  89 CALM      29.84R
Chicago Midway CLOUDY    55  51  86 S3        29.85R
Houston Bush   CLOUDY    75  70  84 S7        29.85R
Houston Hobby  MOCLDY    75  71  87 SE5       29.85R
Nashville      PTCLDY    54  52  93 S7        29.95R
Atlanta        PTCLDY    58  51  78 W5        30.01R

$$

GAZ044-118-TXZ119-213-NCZ071-DCZ001-MDZ014-506-PAZ021-071-NJZ106-
NYZ176-178-MAZ106-OHZ011-021-055-MIZ076-KYZ091-ILZ014-INZ047-
MNZ060-ONZ431-261200-

...Gateway Observations for Savannah International...

CITY           SKY/WX    TMP DP  RH WIND       PRES   REMARKS
Savannah Arpt  PTCLDY    58  53  84 CALM      30.02R
Atlanta        PTCLDY    58  51  78 W5        30.01R
Charlotte      CLEAR     58  51  78 SW3       29.95R
Dallas DFW     MOCLDY    76  71  85 S18G24    29.70R
Houston Bush   CLOUDY    75  70  84 S7        29.85R
Wash National  PTSUNNY   61  56  83 SW9       29.69R
Wash Dulles    SUNNY     57  56  96 CALM      29.70R
Baltimore      CLOUDY    61  57  87 W8        29.66R
Philadelphia   MOSUNNY   61  57  87 W12       29.60R
Newark         LGT RAIN  55  55 100 NW5       29.56R
Laguardia      CLOUDY    58  54  86 NW9       29.55R
J F K          LGT RAIN  57  57 100 N8        29.56R
Boston         LGT RAIN  49  48  97 N12       29.49F
Pittsburg      LGT RAIN  58  57  97 W9        29.73R FOG
Akron          RAIN      58  54  86 NW12      29.75R FOG
Cleveland      CLOUDY    59  55  87 NW12      29.78R
Cincinnati     PTCLDY    50  50 100 SW3       29.89R
Columbus       CLEAR     56  55  97 W8        29.83R
Detroit        CLOUDY    57  51  80 NW7       29.78R
Chicago O`Hare MOCLDY    53  50  89 CALM      29.84R
Minneapolis    CLOUDY    61  52  72 SE8       29.70R
Indianapolis   CLOUDY    53  51  93 SW5       29.87R FOG
Toronto Canada PTSUNNY   55  54  94 N10       29.62R

$$




USA.gov is the U.S. government's official web portal to all federal, state and local government web resources and services.